Location: San Vito
(41.8833°N, 12.9833°E)
Time: 07:22:45
(UTC+00:00)

NOSS 3-4 (C) - Pass Details

Date: 17 November 2019
Orbit: 908 x 1304 km, 63.4° (Epoch: 02 December)

Event Time Altitude Azimuth Distance (km) Brightness Sun altitude
Exits shadow 04:41:11 - 327° (NNW) 3,121 5.7 -14.6°
Reaches altitude 10° 04:41:41 10° 327° (NNW) 2,942 5.6 -14.5°
Maximum altitude 04:48:46 76° 53° (NE) 1,205 4.1 -13.2°
Drops below altitude 10° 04:56:30 10° 139° (SE) 3,207 7.1 -11.9°
Sets 04:59:23 0° 141° (SE) 4,210 7.8 -11.3°
